OK2CME-6 Weather Reports


time (UTC)temp
F
wind
direction
speed
knots
gust
knots
rain 1hr
in
rain 24hr
in
rain mn
in
humidity
%
barometer
mb
20260905182722 63 333 2.6 7.0 0.00 0.00 0.03 61 1025.0
20260905180722 64 332 2.6 9.6 0.00 0.00 0.03 61 1024.2
20260905174722 65 320 2.6 7.8 0.00 0.00 0.03 60 1023.9
20260905172722 66 303 4.3 11.3 0.00 0.00 0.03 56 1024.0
20260905170722 66 303 3.5 9.6 0.00 0.00 0.03 56 1023.7
20260905164722 66 293 6.1 14.8 0.00 0.00 0.03 54 1023.6
20260905162722 67 276 7.0 22.6 0.00 0.00 0.03 51 1023.4
20260905160722 68 298 8.7 23.5 0.00 0.00 0.03 48 1023.1
20260905154722 67 283 9.6 21.7 0.00 0.00 0.03 51 1023.0
20260905152722 69 287 10.4 19.1 0.00 0.00 0.03 47 1023.1
20260905150722 70 277 9.6 23.5 0.00 0.00 0.03 45 1023.2
20260905144722 71 292 8.7 21.7 0.00 0.00 0.03 45 1023.0
20260905142722 70 292 7.0 19.1 0.00 0.00 0.03 47 1023.2
20260905140722 69 294 7.8 19.1 0.00 0.00 0.03 47 1023.4
20260905134722 69 295 9.6 21.7 0.00 0.00 0.03 46 1023.3
20260905132722 69 305 8.7 26.9 0.00 0.00 0.03 49 1023.4
20260905130722 69 291 7.0 19.1 0.00 0.00 0.03 48 1023.3
20260905124722 69 304 7.8 20.9 0.00 0.00 0.03 48 1023.4
20260905122722 70 305 7.0 20.0 0.00 0.00 0.03 50 1023.5
20260905120722 69 279 7.0 16.5 0.00 0.00 0.03 48 1023.3
20260905114722 67 284 8.7 19.1 0.00 0.00 0.03 51 1023.6
20260905112722 66 257 6.1 18.2 0.00 0.00 0.03 57 1023.3
20260905110722 64 296 6.1 18.2 0.00 0.00 0.03 63 1023.3
20260905104722 65 301 6.1 15.6 0.00 0.00 0.03 66 1023.4
20260905102722 64 292 6.1 15.6 0.00 0.00 0.03 66 1023.5
20260905100722 64 291 5.2 14.8 0.00 0.00 0.03 69 1023.7
20260905094722 63 301 5.2 14.8 0.00 0.00 0.03 73 1023.9
20260905092722 63 289 5.2 13.9 0.00 0.00 0.03 71 1023.9
20260905090722 60 285 5.2 13.9 0.00 0.00 0.03 80 1023.9
20260905084722 57 282 3.5 14.8 0.00 0.00 0.03 86 1023.8
20260905082722 56 271 4.3 12.2 0.00 0.00 0.03 87 1023.4
20260905080722 56 304 5.2 12.2 0.00 0.00 0.03 88 1023.0
20260905074722 55 301 4.3 12.2 0.00 0.00 0.03 89 1023.0
20260905072722 55 288 4.3 12.2 0.01 0.00 0.03 89 1022.5
20260905070722 55 285 5.2 13.9 0.02 0.00 0.03 89 1022.9
20260905064722 55 302 4.3 13.9 0.01 0.00 0.02 89 1022.2
20260905062722 56 299 5.2 13.0 0.01 0.00 0.02 89 1022.0
20260905060722 58 288 7.0 20.0 0.00 0.00 0.01 89 1022.5
20260905054722 58 292 6.1 18.2 0.00 0.00 0.01 88 1021.8
20260905052722 58 316 3.5 13.0 0.00 0.00 0.01 92 1021.8
20260905050722 58 313 1.7 6.1 0.00 0.00 0.01 92 1022.1
20260905044722 58 322 2.6 7.0 0.00 0.00 0.01 89 1021.8
20260905042722 58 323 3.5 8.7 0.01 0.00 0.01 88 1020.8
20260905040722 59 318 3.5 12.2 0.01 0.00 0.01 88 1020.5
20260905034722 59 312 5.2 12.2 0.01 0.00 0.01 88 1020.9
20260905032722 61 310 4.3 12.2 0.00 0.00 0.00 77 1020.1
20260905030722 62 321 4.3 13.0 0.00 0.00 0.00 76 1020.1
20260905024722 62 324 3.5 12.2 0.00 0.00 0.00 74 1020.1
20260905022722 62 328 4.3 13.9 0.00 0.00 0.00 73 1019.9
20260905020722 63 327 5.2 13.9 0.00 0.00 0.00 71 1019.7
20260905014722 64 326 6.1 16.5 0.00 0.00 0.00 71 1019.7
20260905012722 65 321 7.8 19.1 0.00 0.00 0.00 72 1019.3
20260905010722 66 326 7.8 19.1 0.00 0.00 0.00 73 1019.1
20260905004722 72 323 7.8 25.2 0.00 0.00 0.00 59 1017.6
20260905002722 71 290 5.2 12.2 0.00 0.00 0.00 60 1017.4
20260905000722 70 290 3.5 7.8 0.00 0.00 0.00 61 1017.3
20260904234722 70 269 4.3 11.3 0.00 0.00 0.00 61 1017.2
20260904232721 70 273 4.3 8.7 0.00 0.00 0.00 61 1017.3
20260904230721 70 275 2.6 7.0 0.00 0.00 0.00 61 1017.1
20260904224721 70 288 2.6 7.8 0.00 0.00 0.00 60 1017.2
20260904222721 70 277 3.5 7.8 0.00 0.00 0.00 60 1017.4
20260904220721 71 302 1.7 6.1 0.00 0.00 0.00 59 1017.3
20260904214721 71 268 2.6 7.8 0.00 0.00 0.00 58 1017.3
20260904212721 71 268 2.6 7.0 0.00 0.00 0.00 58 1017.5
20260904210721 72 294 1.7 6.1 0.00 0.00 0.00 57 1017.4
20260904204721 73 244 4.3 9.6 0.00 0.00 0.00 55 1017.3
20260904202721 74 227 7.0 13.0 0.00 0.00 0.00 54 1017.7
20260904200721 74 223 6.1 11.3 0.00 0.00 0.00 54 1017.9
20260904194721 75 237 4.3 7.8 0.00 0.00 0.00 54 1018.2
20260904192721 75 234 4.3 7.8 0.00 0.00 0.00 54 1018.5
20260904190721 75 231 4.3 7.0 0.00 0.00 0.00 54 1018.4
20260904184722 75 234 3.5 7.0 0.00 0.00 0.00 55 1018.4